Theta_e
300 301 302 303 303 304 304 306 307 308 308 308 308 307 307 306 306 305 305 304 304 306
299 299 300 301 301 302 303 305 306 307 307 307 307 307 306 306 305 305 305 305 305 306
296 297 299 300 299 300 302 302 303 304 305 306 306 306 306 306 305 304 305 306 304 305
293 294 295 296 297 299 300 301 301 302 303 304 305 305 305 305 306 306 307 306 306 306
289 290 290 291 293 295 296 299 300 301 301 302 303 305 305 305 307 307 307 308 307 307
286 286 287 288 290 291 292 294 297 299 300 301 302 303 304 306 310 309 309 308 308 307
283 284 285 286 287 288 290 292 294 296 298 302 302 302 304 305 305 307 309 309 309 308
280 282 283 284 285 287 289 290 291 292 294 296 302 302 302 303 304 304 306 307 307 308
278 280 281 282 285 286 286 286 288 289 291 293 296 292 293 294 301 303 304 304 306 307
277 278 279 282 284 283 283 285 286 288 289 290 293 291 291 290 293 300 303 304 304 305
276 277 279 282 280 281 282 283 285 287 290 289 290 288 288 289 292 295 300 303 304 304
275 277 280 278 278 280 282 282 284 287 286 284 285 286 287 288 289 290 293 296 301 303
277 279 277 277 278 279 280 281 283 283 282 282 281 284 286 286 286 286 288 292 295 291
277 277 276 276 277 278 278 279 279 280 280 280 280 281 284 285 283 284 287 285 285 285
Wind_Speed
7 4 3 1 1 2 2 3 3 4 5 6 6 6 5 4 5 5 6 7 6 5
7 7 5 6 5 3 3 3 4 4 4 5 5 6 5 5 6 5 6 6 7 7
7 8 7 6 7 6 5 6 6 5 4 4 4 4 5 4 5 6 5 5 6 6
8 8 7 7 7 7 6 6 6 6 5 4 4 4 4 5 6 7 7 6 7 9
8 8 8 8 8 8 8 7 6 6 6 6 5 4 4 5 6 7 8 9 8 9
8 8 8 7 8 8 8 8 8 8 6 6 6 6 5 5 6 6 7 8 8 9
8 7 7 7 7 8 8 7 8 8 8 8 6 6 6 7 9 8 6 7 9 9
7 7 7 7 7 7 7 7 8 8 8 8 8 5 8 9 9 10 10 6 7 9
7 7 7 7 7 7 8 8 8 8 8 9 6 13 16 14 9 9 9 9 8 7
8 7 8 7 8 10 9 9 8 8 8 8 8 18 18 17 10 8 8 8 8 8
8 8 8 9 9 9 8 9 8 8 9 9 9 19 21 20 10 8 9 9 9 9
8 9 9 10 9 9 9 8 8 8 10 10 10 19 20 17 10 10 10 9 10 9
6 6 7 7 7 6 5 6 6 6 9 10 11 18 20 17 8 10 8 9 8 15
6 7 7 6 6 7 6 6 6 7 8 10 11 13 20 19 9 8 7 8 8 10
Wind_Direction
39 60 77 66 307 279 269 271 267 249 222 216 207 204 202 212 218 202 217 217 211 223
28 35 38 36 37 16 351 320 318 285 259 237 221 206 194 213 223 206 218 224 222 225
28 28 29 36 33 21 11 5 354 341 315 287 256 221 200 216 217 211 226 222 214 227
26 23 25 28 15 6 2 8 9 359 348 331 309 284 228 227 221 216 229 222 222 236
28 23 24 16 7 2 358 353 348 351 358 349 325 294 269 258 235 222 229 232 225 234
29 23 18 10 3 359 355 348 347 343 342 337 332 323 284 264 251 239 229 232 229 234
25 15 9 2 0 354 348 347 349 344 337 323 312 311 311 312 295 284 258 232 236 231
14 9 6 4 357 348 351 352 344 338 338 331 327 320 327 310 301 294 289 262 241 235
13 8 6 357 354 1 357 350 343 342 337 333 331 358 3 349 312 292 289 285 277 249
11 5 0 344 3 360 352 346 347 342 339 332 336 13 360 347 321 298 280 274 277 279
5 2 352 3 1 351 350 344 342 337 354 7 353 4 354 342 326 314 303 282 271 265
356 351 360 357 348 350 346 345 339 354 13 9 359 359 352 350 335 324 315 313 314 295
331 19 10 350 342 342 339 343 9 22 28 21 8 358 357 359 344 336 325 318 339 0
26 42 17 2 8 5 3 20 24 36 33 24 15 0 5 7 2 351 4 23 15 24